Temp
11 11 11 11 11 11 11 10 10 9 9 8 8 8 7 6 6 6 6 6 6 6
11 10 10 10 10 10 10 9 9 9 8 8 7 7 6 6 6 6 6 5 5 5
10 10 9 9 9 9 9 9 8 8 8 7 7 7 6 6 6 5 5 5 5 5
9 9 8 9 9 8 8 8 8 8 7 7 7 6 6 6 6 5 5 5 4 4
8 8 8 8 8 8 8 7 7 7 7 7 7 6 6 6 6 5 5 5 4 4
8 8 8 7 7 7 7 7 7 8 7 7 6 6 6 6 6 5 5 5 5 4
7 7 7 7 7 6 6 7 7 6 6 6 6 6 5 5 5 5 5 5 4 4
6 6 6 6 6 6 6 6 6 6 6 6 5 5 5 5 5 5 5 5 4 3
6 5 5 5 5 5 5 5 5 5 5 5 5 5 6 4 4 5 5 5 4 3
5 5 5 5 5 5 5 5 5 5 5 5 5 4 5 4 3 4 4 4 4 3
5 4 4 4 4 4 4 4 4 4 4 4 4 4 4 4 3 3 4 3 3 3
4 4 4 4 4 3 3 3 3 3 2 3 3 3 3 3 3 3 4 3 2 2
3 3 3 3 3 2 2 2 2 2 2 2 2 2 3 2 2 3 3 3 1 1
3 3 3 2 2 2 2 2 2 2 3 2 2 2 2 2 1 3 3 2 1 0
Height
826 824 822 821 820 818 816 815 814 813 812 812 812 811 811 811 811 811 811 812 811 810
823 821 819 817 815 813 811 810 809 808 808 807 808 808 808 808 809 809 809 808 808 807
820 819 816 814 811 809 807 806 805 805 804 804 804 803 804 804 804 805 805 805 804 804
818 815 812 810 808 806 804 803 802 801 801 800 799 799 799 800 800 801 801 801 800 800
814 812 810 808 805 803 800 799 797 797 796 795 794 794 794 794 794 794 794 795 796 796
812 810 808 805 802 800 797 796 794 792 791 790 789 788 788 788 789 789 790 790 790 791
812 809 806 803 801 798 795 793 793 791 789 787 785 784 784 784 784 785 784 785 785 785
809 807 804 802 799 797 795 792 789 786 784 782 780 779 779 779 779 779 778 779 778 779
807 805 803 800 798 795 793 790 787 784 780 778 776 774 774 774 775 774 773 773 773 774
805 803 801 799 797 794 791 786 783 780 777 773 772 771 770 769 769 769 768 767 768 769
803 801 800 797 794 790 786 783 779 776 773 771 768 766 764 763 763 763 762 762 763 764
801 799 796 792 788 785 781 778 775 773 771 769 766 762 760 758 758 757 757 757 758 759
797 793 790 786 783 781 778 776 773 769 766 763 761 760 757 754 754 752 753 754 753 755
791 788 785 782 780 778 776 773 769 766 763 761 758 755 753 751 751 749 749 749 750 751
Wind_Speed
10 11 13 14 16 16 15 13 12 13 13 13 12 11 10 8 7 7 8 9 9 9
9 11 13 14 15 16 16 16 15 15 14 13 13 12 10 9 9 9 9 10 10 10
11 13 14 15 16 16 16 16 15 15 14 13 13 12 11 11 10 11 11 10 11 11
12 13 13 14 15 15 14 14 14 14 14 14 13 13 13 13 12 13 13 13 13 13
11 11 12 13 13 13 12 11 11 12 14 15 15 15 15 15 15 16 16 15 14 14
9 11 12 12 12 10 9 9 10 12 14 15 16 15 16 16 17 17 17 16 16 16
9 10 11 11 11 10 10 9 9 10 12 13 14 15 16 17 17 18 18 18 17 17
9 10 10 11 11 11 10 10 11 12 12 12 13 14 15 16 18 19 19 18 18 18
8 9 10 10 11 11 11 10 11 11 12 14 14 16 18 18 18 20 20 20 19 18
9 9 10 11 11 11 11 11 11 12 12 14 15 17 18 17 18 20 19 19 18 16
9 10 10 10 10 11 12 12 14 14 13 14 15 17 17 17 15 20 21 19 17 17
10 11 11 11 12 12 13 13 13 13 13 14 15 16 16 14 13 16 20 18 17 18
11 11 12 12 12 12 12 13 13 13 11 12 14 16 15 12 12 14 15 15 15 17
11 11 11 12 12 12 13 14 13 13 13 12 11 13 14 12 10 12 12 13 12 14
Wind_Direction
283 282 283 282 277 271 268 264 259 261 260 259 260 263 266 264 266 265 266 267 266 274
300 301 294 290 281 275 268 262 259 260 255 255 257 259 255 257 261 260 260 261 256 255
313 308 306 302 295 285 276 266 260 256 256 255 256 257 254 255 257 254 256 254 252 250
315 316 315 307 303 296 284 272 263 260 258 255 255 254 251 252 254 254 254 250 248 247
325 327 322 317 310 301 288 277 268 262 260 260 257 251 247 248 248 248 248 249 247 247
334 334 335 331 325 314 300 287 281 275 266 261 258 255 253 251 252 251 251 249 246 246
327 329 330 332 333 327 320 309 296 286 281 279 276 267 261 255 254 254 253 250 246 245
328 332 333 333 333 330 323 312 307 303 296 290 284 276 268 261 256 254 252 249 246 245
328 331 332 333 333 329 323 318 315 311 308 305 296 291 294 278 261 258 253 250 248 246
319 323 326 327 325 323 321 322 320 317 314 310 303 295 298 288 264 260 257 251 247 243
309 311 310 312 314 322 325 327 328 325 319 308 303 301 298 292 272 260 256 252 245 239
294 299 304 311 319 324 326 324 321 316 312 308 307 308 307 296 275 264 257 253 244 237
284 292 302 311 316 314 312 307 308 306 307 306 311 315 315 301 274 266 259 252 243 240
294 298 300 301 302 303 306 307 308 307 314 310 307 312 317 307 276 264 259 248 239 234